logo
Search for airport 
image banner adimage banner adimage banner ad
image banner ad

EHJN - K8-Fa-3 (Oil Platform)

Located in , Netherlands

ICAO - , IATA -

Data provided by Airmate  

General information

Coordinates: N53°32'29" E3°25'20"
Elevation is feet MSL.
 
View others Airports in Noord-Holland

Operational data

Special qualification required
Current time UTC:
Current local time:
Weather at : EHKV - K14-Fa-1C (Oil Platform) ( 33 km )
METAR: EHKV 171425Z AUTO 27011KT 240V340 9999 NSC 16/14 Q1021
View NOTAMs / SUP AIP / TFR affecting this airport [VIEW]
Communications frequencies: [VIEW]

Runways:

Airport contact information

Address: Netherlands

Satellite view of EHJN